This is the latest recevied weather packets stored in our database for station/object KD0SBN. If no packets are shown the sender has not sent any weather packets the latest 10 day(s).
| Time | Temp. | Humidity | Pressure | Rain* | Wind** | Luminosity | Snow |
|---|---|---|---|---|---|---|---|
| 1777789155 | 11.67° C | 41% | 1017.7 hPa | 0 mm | - | - | - |
| 1777788851 | 11.67° C | 41% | 1017.8 hPa | 0 mm | - | - | - |
| 1777788547 | 11.67° C | 42% | 1017.9 hPa | 0 mm | - | - | - |
| 1777788241 | 11.67° C | 42% | 1017.8 hPa | 0 mm | - | - | - |
| 1777787937 | 11.67° C | 42% | 1017.8 hPa | 0 mm | - | - | - |
| 1777787633 | 11.67° C | 42% | 1017.9 hPa | 0 mm | - | - | - |
| 1777787329 | 11.67° C | 43% | 1017.9 hPa | 0 mm | - | - | - |
| 1777787025 | 11.67° C | 42% | 1017.9 hPa | 0 mm | - | - | - |
| 1777786723 | 10.56° C | 44% | 1017.8 hPa | 0 mm | - | - | - |
| 1777786421 | 10.56° C | 51% | 1017.8 hPa | 0 mm | - | - | - |
| 1777786117 | 10.56° C | 49% | 1018 hPa | 0 mm | - | - | - |
| 1777785814 | 10° C | 49% | 1017.8 hPa | 0 mm | - | - | - |
| 1777785510 | 9.44° C | 51% | 1017.7 hPa | 0 mm | - | - | - |
| 1777785207 | 9.44° C | 53% | 1017.9 hPa | 0 mm | - | - | - |
| 1777784904 | 9.44° C | 55% | 1017.7 hPa | 0 mm | - | - | - |
| 1777784600 | 10° C | 56% | 1018 hPa | 0 mm | - | - | - |
| 1777784298 | 10.56° C | 53% | 1018.2 hPa | 0 mm | - | - | - |
| 1777783995 | 10° C | 52% | 1018.3 hPa | 0 mm | - | - | - |
| 1777783691 | 11.11° C | 51% | 1018.2 hPa | 0 mm | - | - | - |
| 1777783388 | 11.67° C | 46% | 1018.4 hPa | 0 mm | - | - | - |
| 1777783086 | 11.67° C | 49% | 1018 hPa | 0 mm | - | - | - |
| 1777782782 | 12.22° C | 44% | 1018.3 hPa | 0 mm | - | - | - |
| 1777782478 | 12.78° C | 42% | 1018.2 hPa | 0 mm | - | - | - |
| 1777782175 | 12.78° C | 45% | 1018.2 hPa | 0 mm | - | - | - |
| 1777781871 | 13.33° C | 42% | 1018.4 hPa | 0 mm | - | - | - |
* Rain latest hour (hover to see other rain measurements)
** Current wind speed in m/s (hover to see current wind gust speed)